"Period start","avg(HW err(1)/warn(2) (#))","avg(Visibility (m))","avg(Weather code (#))","avg(Precip intensity (mm/h))","min(HW err(1)/warn(2) (#))","max(HW err(1)/warn(2) (#))","std(HW err(1)/warn(2) (#))","med(HW err(1)/warn(2) (#))","min(Visibility (m))","max(Visibility (m))","std(Visibility (m))","med(Visibility (m))","min(Weather code (#))","max(Weather code (#))","std(Weather code (#))","med(Weather code (#))","min(Precip intensity (mm/h))","max(Precip intensity (mm/h))","std(Precip intensity (mm/h))","med(Precip intensity (mm/h))"
2017-04-27 00:00:00,2,22404,0,0.00,2,2,0,2,14038,32046,5207,22773,0,0,0,0,0.00,0.00,0.00,0.00
2017-04-27 00:10:00,2,26323,0,0.00,2,2,0,2,19404,37401,6677,23342,0,0,0,0,0.00,0.00,0.00,0.00
2017-04-27 00:20:00,2,27889,0,0.00,2,2,0,2,17151,37995,7047,29424,0,0,0,0,0.00,0.00,0.00,0.00
2017-04-27 00:30:00,2,26139,0,0.00,2,2,0,2,16497,38553,8514,22118,0,0,0,0,0.00,0.00,0.00,0.00
2017-04-27 00:40:00,2,27998,0,0.00,2,2,0,2,22469,36755,3795,27184,0,0,0,0,0.00,0.00,0.00,0.00
2017-04-27 00:50:00,2,26022,0,0.00,2,2,0,2,12237,40312,9384,22072,0,0,0,0,0.00,0.00,0.00,0.00
2017-04-27 01:00:00,2,29930,0,0.00,2,2,0,2,15977,48735,11061,28436,0,0,0,0,0.00,0.00,0.00,0.00
2017-04-27 01:10:00,2,27759,0,0.00,2,2,0,2,14400,50000,12442,20398,0,0,0,0,0.00,0.00,0.00,0.00
2017-04-27 01:20:00,2,35596,0,0.00,2,2,0,2,21607,50000,9051,34960,0,0,0,0,0.00,0.00,0.00,0.00
2017-04-27 01:30:00,1,29018,0,0.00,0,2,1,2,17722,36129,5672,30893,0,0,0,0,0.00,0.00,0.00,0.00
2017-04-27 01:40:00,0,24680,0,0.00,0,0,0,0,16164,36792,6021,24916,0,0,0,0,0.00,0.00,0.00,0.00
2017-04-27 01:50:00,0,23498,0,0.00,0,0,0,0,19008,28446,3127,24502,0,0,0,0,0.00,0.00,0.00,0.00
2017-04-27 02:00:00,0,22573,0,0.00,0,0,0,0,12088,40070,9244,20182,0,0,0,0,0.00,0.00,0.00,0.00
2017-04-27 02:10:00,0,19169,0,0.00,0,0,0,0,12573,31115,5649,16974,0,0,0,0,0.00,0.00,0.00,0.00
2017-04-27 02:20:00,0,22429,0,0.00,0,0,0,0,18873,27363,2442,21940,0,0,0,0,0.00,0.00,0.00,0.00
2017-04-27 02:30:00,0,30780,0,0.00,0,0,0,0,22071,46784,8702,26459,0,0,0,0,0.00,0.00,0.00,0.00
2017-04-27 02:40:00,0,21546,0,0.00,0,0,0,0,12309,35077,7433,19058,0,0,0,0,0.00,0.00,0.00,0.00
2017-04-27 02:50:00,0,19734,0,0.00,0,0,0,0,14365,25924,3107,19807,0,0,0,0,0.00,0.00,0.00,0.00
2017-04-27 03:00:00,0,30201,0,0.00,0,0,0,0,18998,42695,7603,28915,0,0,0,0,0.00,0.00,0.00,0.00
2017-04-27 03:10:00,0,26553,0,0.00,0,0,0,0,19115,38215,6290,24582,0,0,0,0,0.00,0.00,0.00,0.00
2017-04-27 03:20:00,0,20959,0,0.00,0,0,0,0,15480,29280,4339,20406,0,0,0,0,0.00,0.00,0.00,0.00
2017-04-27 03:30:00,0,24134,0,0.00,0,0,0,0,16306,30624,4210,23177,0,0,0,0,0.00,0.00,0.00,0.00
2017-04-27 03:40:00,0,22945,0,0.00,0,0,0,0,17039,31974,5023,21464,0,0,0,0,0.00,0.00,0.00,0.00
2017-04-27 03:50:00,0,38644,0,0.00,0,0,0,0,28120,48947,5989,38888,0,0,0,0,0.00,0.00,0.00,0.00
2017-04-27 04:00:00,0,38088,0,0.00,0,0,0,0,27025,46188,6266,37936,0,0,0,0,0.00,0.00,0.00,0.00
2017-04-27 04:10:00,0,35286,0,0.00,0,0,0,0,24866,48669,7184,35318,0,0,0,0,0.00,0.00,0.00,0.00
2017-04-27 04:20:00,0,29340,0,0.00,0,0,0,0,18922,42255,7642,28910,0,0,0,0,0.00,0.00,0.00,0.00
2017-04-27 04:30:00,0,33572,0,0.00,0,0,0,0,20532,44676,6732,34978,0,0,0,0,0.00,0.00,0.00,0.00
2017-04-27 04:40:00,0,35938,0,0.00,0,0,0,0,23646,45227,6937,35384,0,0,0,0,0.00,0.00,0.00,0.00
2017-04-27 04:50:00,0,40500,0,0.00,0,0,0,0,23270,50000,8506,41184,0,0,0,0,0.00,0.00,0.00,0.00
2017-04-27 05:00:00,0,39108,0,0.00,0,0,0,0,22539,50000,8825,40820,0,0,0,0,0.00,0.00,0.00,0.00
2017-04-27 05:10:00,0,34666,0,0.00,0,0,0,0,21263,50000,9200,36462,0,0,0,0,0.00,0.00,0.00,0.00
2017-04-27 05:20:00,0,36179,0,0.00,0,0,0,0,26163,40978,4260,37243,0,0,0,0,0.00,0.00,0.00,0.00
2017-04-27 05:30:00,0,42889,0,0.00,0,0,0,0,28310,50000,6186,43348,0,0,0,0,0.00,0.00,0.00,0.00
2017-04-27 05:40:00,0,39890,0,0.00,0,0,0,0,24407,50000,6948,40185,0,0,0,0,0.00,0.00,0.00,0.00
2017-04-27 05:50:00,0,43684,0,0.00,0,0,0,0,36247,50000,5183,41987,0,0,0,0,0.00,0.00,0.00,0.00
2017-04-27 06:00:00,0,40920,0,0.00,0,0,0,0,22978,50000,8503,39725,0,0,0,0,0.00,0.00,0.00,0.00
2017-04-27 06:10:00,0,28144,0,0.00,0,0,0,0,16772,43624,7736,25880,0,0,0,0,0.00,0.00,0.00,0.00
2017-04-27 06:20:00,0,28917,0,0.00,0,0,0,0,19663,37500,5768,29878,0,0,0,0,0.00,0.00,0.00,0.00
2017-04-27 06:30:00,0,39206,0,0.00,0,0,0,0,18692,46542,8472,43322,0,0,0,0,0.00,0.00,0.00,0.00
2017-04-27 06:40:00,0,36164,0,0.00,0,0,0,0,22859,47932,7170,35572,0,0,0,0,0.00,0.00,0.00,0.00
2017-04-27 06:50:00,0,39048,0,0.00,0,0,0,0,26832,50000,8094,38194,0,0,0,0,0.00,0.00,0.00,0.00
2017-04-27 07:00:00,0,43602,0,0.00,0,0,0,0,33468,50000,6447,47412,0,0,0,0,0.00,0.00,0.00,0.00
2017-04-27 07:10:00,0,40930,0,0.00,0,0,0,0,31721,50000,5648,39710,0,0,0,0,0.00,0.00,0.00,0.00
2017-04-27 07:20:00,0,43980,0,0.00,0,0,0,0,33846,50000,4806,43675,0,0,0,0,0.00,0.00,0.00,0.00
2017-04-27 07:30:00,0,45403,0,0.00,0,0,0,0,28107,50000,6807,50000,0,0,0,0,0.00,0.00,0.00,0.00
2017-04-27 07:40:00,0,41529,0,0.00,0,0,0,0,30437,50000,6098,41515,0,0,0,0,0.00,0.00,0.00,0.00
2017-04-27 07:50:00,0,43198,0,0.00,0,0,0,0,35730,50000,5760,41587,0,0,0,0,0.00,0.00,0.00,0.00
2017-04-27 08:00:00,0,34986,0,0.00,0,0,0,0,23217,48457,7187,34241,0,0,0,0,0.00,0.00,0.00,0.00
2017-04-27 08:10:00,0,43271,0,0.00,0,0,0,0,35865,50000,5316,41902,0,0,0,0,0.00,0.00,0.00,0.00
2017-04-27 08:20:00,0,33568,0,0.00,0,0,0,0,25810,49240,6697,33342,0,0,0,0,0.00,0.00,0.00,0.00
2017-04-27 08:30:00,0,47069,0,0.00,0,0,0,0,41084,50000,2833,47813,0,0,0,0,0.00,0.00,0.00,0.00
2017-04-27 08:40:00,0,46769,0,0.00,0,0,0,0,37360,50000,4159,48878,0,0,0,0,0.00,0.00,0.00,0.00
2017-04-27 08:50:00,0,43400,0,0.00,0,0,0,0,34873,50000,5325,45214,0,0,0,0,0.00,0.00,0.00,0.00
2017-04-27 09:00:00,0,44062,0,0.00,0,0,0,0,27895,50000,7222,47094,0,0,0,0,0.00,0.00,0.00,0.00
2017-04-27 09:10:00,0,47478,0,0.00,0,0,0,0,41099,50000,3329,49229,0,0,0,0,0.00,0.00,0.00,0.00
2017-04-27 09:20:00,0,48101,0,0.00,0,0,0,0,42745,50000,2372,48914,0,0,0,0,0.00,0.00,0.00,0.00
2017-04-27 09:30:00,0,45044,0,0.00,0,0,0,0,37353,50000,4952,46738,0,0,0,0,0.00,0.00,0.00,0.00
2017-04-27 09:40:00,1,47862,0,0.00,0,2,1,0,43534,50000,2645,49636,0,0,0,0,0.00,0.00,0.00,0.00
2017-04-27 09:50:00,2,47587,0,0.00,2,2,0,2,41669,50000,2935,49128,0,0,0,0,0.00,0.00,0.00,0.00
2017-04-27 10:00:00,2,48355,0,0.00,2,2,0,2,44371,50000,1841,49008,0,0,0,0,0.00,0.00,0.00,0.00
2017-04-27 10:10:00,2,49351,0,0.00,2,2,0,2,47351,50000,924,49912,0,0,0,0,0.00,0.00,0.00,0.00
2017-04-27 10:20:00,1,46280,0,0.00,0,2,1,2,39625,50000,3983,48063,0,0,0,0,0.00,0.00,0.00,0.00
2017-04-27 10:30:00,2,47782,0,0.00,2,2,0,2,38690,50000,3915,49702,0,0,0,0,0.00,0.00,0.00,0.00
2017-04-27 10:40:00,2,49392,0,0.00,2,2,0,2,48016,50000,759,49891,0,0,0,0,0.00,0.00,0.00,0.00
2017-04-27 10:50:00,2,48931,0,0.00,2,2,0,2,42702,50000,2143,50000,0,0,0,0,0.00,0.00,0.00,0.00
2017-04-27 11:00:00,2,46755,0,0.00,2,2,0,2,40559,50000,3406,47454,0,0,0,0,0.00,0.00,0.00,0.00
2017-04-27 11:10:00,2,48967,0,0.00,2,2,0,2,45921,50000,1597,50000,0,0,0,0,0.00,0.00,0.00,0.00
2017-04-27 11:20:00,2,49643,0,0.00,2,2,0,2,47625,50000,761,50000,0,0,0,0,0.00,0.00,0.00,0.00
2017-04-27 11:30:00,2,49100,0,0.00,2,2,0,2,46321,50000,1222,50000,0,0,0,0,0.00,0.00,0.00,0.00
2017-04-27 11:40:00,2,49712,0,0.00,2,2,0,2,47117,50000,865,50000,0,0,0,0,0.00,0.00,0.00,0.00
2017-04-27 11:50:00,2,47391,0,0.00,2,2,0,2,43558,50000,2067,46928,0,0,0,0,0.00,0.00,0.00,0.00
2017-04-27 12:00:00,2,48750,0,0.00,2,2,0,2,44551,50000,1688,49487,0,0,0,0,0.00,0.00,0.00,0.00
2017-04-27 12:10:00,2,46171,0,0.00,2,2,0,2,44033,50000,1954,45241,0,0,0,0,0.00,0.00,0.00,0.00
2017-04-27 12:20:00,2,48307,0,0.00,2,2,0,2,44659,50000,2108,49490,0,0,0,0,0.00,0.00,0.00,0.00
2017-04-27 12:30:00,2,46848,0,0.00,2,2,0,2,40814,50000,3505,48804,0,0,0,0,0.00,0.00,0.00,0.00
2017-04-27 12:40:00,2,44504,0,0.00,2,2,0,2,36777,49559,4135,45644,0,0,0,0,0.00,0.00,0.00,0.00
2017-04-27 12:50:00,1,46213,0,0.00,0,2,1,2,38967,50000,3690,46728,0,0,0,0,0.00,0.00,0.00,0.00
2017-04-27 13:00:00,2,47985,0,0.00,2,2,0,2,43823,50000,2404,49134,0,0,0,0,0.00,0.00,0.00,0.00
2017-04-27 13:10:00,2,49540,0,0.00,2,2,0,2,48282,50000,562,49846,0,0,0,0,0.00,0.00,0.00,0.00
2017-04-27 13:20:00,1,48529,0,0.00,0,2,1,0,44939,50000,1857,49780,0,0,0,0,0.00,0.00,0.00,0.00
2017-04-27 13:30:00,0,48002,0,0.00,0,0,0,0,43886,50000,1981,47988,0,0,0,0,0.00,0.00,0.00,0.00
2017-04-27 13:40:00,0,49733,0,0.00,0,0,0,0,48831,50000,429,50000,0,0,0,0,0.00,0.00,0.00,0.00
2017-04-27 13:50:00,0,49219,0,0.00,0,0,0,0,46916,50000,1207,50000,0,0,0,0,0.00,0.00,0.00,0.00
2017-04-27 14:00:00,0,49431,0,0.00,0,0,0,0,47153,50000,937,50000,0,0,0,0,0.00,0.00,0.00,0.00
2017-04-27 14:10:00,0,49495,0,0.00,0,0,0,0,46950,50000,1037,50000,0,0,0,0,0.00,0.00,0.00,0.00
2017-04-27 14:20:00,0,47344,0,0.00,0,0,0,0,43259,50000,2746,48196,0,0,0,0,0.00,0.00,0.00,0.00
2017-04-27 14:30:00,1,43768,0,0.00,0,2,1,0,32591,50000,6651,46662,0,0,0,0,0.00,0.00,0.00,0.00
2017-04-27 14:40:00,2,48415,0,0.00,2,2,0,2,43272,50000,2057,49284,0,0,0,0,0.00,0.00,0.00,0.00
2017-04-27 14:50:00,2,42550,0,0.00,2,2,0,2,27724,50000,6392,42429,0,0,0,0,0.00,0.00,0.00,0.00
2017-04-27 15:00:00,2,40408,0,0.00,2,2,0,2,35248,48082,4309,39034,0,0,0,0,0.00,0.00,0.00,0.00
2017-04-27 15:10:00,2,43714,0,0.00,2,2,0,2,41384,46483,1961,42836,0,0,0,0,0.00,0.00,0.00,0.00
2017-04-27 15:20:00,2,46000,0,0.00,2,2,0,2,42454,49908,2388,46294,0,0,0,0,0.00,0.00,0.00,0.00
2017-04-27 15:30:00,2,37543,0,0.00,2,2,0,2,30006,45118,4952,37950,0,0,0,0,0.00,0.00,0.00,0.00
2017-04-27 15:40:00,2,21372,52,0.01,2,2,0,2,8162,30611,6927,24342,0,71,22,56,0.00,0.05,0.02,0.00
2017-04-27 15:50:00,2,29519,36,0.02,2,2,0,2,18240,38397,7106,32518,0,71,36,36,0.00,0.15,0.05,0.00
2017-04-27 16:00:00,2,26236,0,0.00,2,2,0,2,15088,42900,8090,25903,0,0,0,0,0.00,0.00,0.00,0.00
2017-04-27 16:10:00,2,20358,28,0.01,2,2,0,2,12445,30044,5176,19693,0,71,35,0,0.00,0.10,0.03,0.00
2017-04-27 16:20:00,2,16940,72,0.01,2,2,0,2,10180,19973,2619,16972,71,77,2,71,0.00,0.05,0.02,0.00
2017-04-27 16:30:00,2,19531,66,0.02,2,2,0,2,15309,22188,1787,19931,0,77,22,71,0.00,0.05,0.02,0.00
2017-04-27 16:40:00,2,19276,36,0.01,2,2,0,2,11116,24418,3858,20156,0,71,36,36,0.00,0.10,0.03,0.00
2017-04-27 16:50:00,2,18548,0,0.00,2,2,0,2,16983,20489,1115,18184,0,0,0,0,0.00,0.00,0.00,0.00
2017-04-27 17:00:00,2,19619,0,0.00,2,2,0,2,18366,20864,835,19971,0,0,0,0,0.00,0.00,0.00,0.00
2017-04-27 17:10:00,2,20261,0,0.00,2,2,0,2,18638,21831,1052,20248,0,0,0,0,0.00,0.00,0.00,0.00
2017-04-27 17:20:00,2,16717,0,0.00,2,2,0,2,14060,20384,2035,15980,0,0,0,0,0.00,0.00,0.00,0.00
2017-04-27 17:30:00,2,10745,54,0.14,2,2,0,2,7523,13285,1672,10980,0,77,24,56,0.00,0.25,0.08,0.17
2017-04-27 17:40:00,2,5756,71,0.96,2,2,0,2,3116,8693,2017,5497,71,71,0,71,0.20,2.10,0.63,0.85
2017-04-27 17:50:00,2,2792,71,2.22,2,2,0,2,2183,3485,435,2759,71,71,0,71,0.75,3.15,0.63,2.17
2017-04-27 18:00:00,2,3991,71,1.12,2,2,0,2,2521,5263,919,4069,71,71,0,71,0.55,2.15,0.52,1.02
2017-04-27 18:10:00,2,3320,71,1.07,2,2,0,2,2867,4423,459,3198,71,71,0,71,0.60,1.80,0.33,1.08
2017-04-27 18:20:00,2,3006,71,0.78,2,2,0,2,2332,3842,471,2983,71,71,0,71,0.50,1.15,0.19,0.78
2017-04-27 18:30:00,2,2005,71,1.64,2,2,0,2,1763,2510,204,1954,71,71,0,71,1.10,2.45,0.40,1.52
2017-04-27 18:40:00,2,2031,71,1.15,2,2,0,2,1825,2627,233,1962,71,71,0,71,0.55,2.05,0.42,1.10
2017-04-27 18:50:00,2,2410,71,0.93,2,2,0,2,1857,3529,447,2345,71,71,0,71,0.45,1.50,0.28,0.92
2017-04-27 19:00:00,2,2285,71,1.33,2,2,0,2,1886,3157,369,2260,71,71,0,71,0.85,1.75,0.26,1.35
2017-04-27 19:10:00,2,2030,71,1.44,2,2,0,2,1789,2459,182,1977,71,71,0,71,1.20,1.80,0.20,1.38
2017-04-27 19:20:00,2,1858,71,1.17,2,2,0,2,1433,2331,251,1807,71,71,0,71,0.90,1.60,0.23,1.08
2017-04-27 19:30:00,2,1779,71,1.45,2,2,0,2,1583,1925,100,1772,71,71,0,71,1.25,1.70,0.15,1.40
2017-04-27 19:40:00,2,1847,71,1.38,2,2,0,2,1640,2213,170,1823,71,71,0,71,1.00,1.65,0.23,1.40
2017-04-27 19:50:00,2,2176,71,1.29,2,2,0,2,2005,2403,118,2148,71,71,0,71,0.95,1.75,0.26,1.20
2017-04-27 20:00:00,2,2340,71,1.21,2,2,0,2,2127,2673,156,2335,71,71,0,71,0.90,1.60,0.24,1.15
2017-04-27 20:10:00,2,2747,71,0.82,2,2,0,2,2336,3077,271,2814,71,71,0,71,0.65,1.15,0.18,0.75
2017-04-27 20:20:00,2,3430,72,0.62,2,2,0,2,3055,3709,214,3469,71,77,2,71,0.30,1.20,0.23,0.55
2017-04-27 20:30:00,2,2585,71,1.42,2,2,0,2,2049,3233,370,2514,71,71,0,71,0.85,2.20,0.45,1.20
2017-04-27 20:40:00,2,3439,71,1.17,2,2,0,2,2521,5474,1033,3000,71,71,0,71,0.25,2.10,0.50,1.25
2017-04-27 20:50:00,2,3871,71,0.86,2,2,0,2,3188,4716,546,3786,71,71,0,71,0.35,1.90,0.46,0.85
2017-04-27 21:00:00,2,4034,71,0.72,2,2,0,2,3043,4895,562,3943,71,71,0,71,0.30,1.25,0.29,0.75
2017-04-27 21:10:00,2,3338,71,0.82,2,2,0,2,2947,4108,347,3292,71,71,0,71,0.45,1.45,0.26,0.75
2017-04-27 21:20:00,2,3701,71,0.81,2,2,0,2,3346,3987,172,3720,71,71,0,71,0.60,1.35,0.22,0.70
2017-04-27 21:30:00,2,4678,71,0.55,2,2,0,2,4091,5457,468,4536,71,71,0,71,0.35,0.65,0.09,0.57
2017-04-27 21:40:00,2,6311,71,0.38,2,2,0,2,5366,7020,519,6259,71,71,0,71,0.20,0.60,0.12,0.35
2017-04-27 21:50:00,2,6364,71,0.23,2,2,0,2,5561,7392,514,6282,71,71,0,71,0.10,0.40,0.08,0.25
2017-04-27 22:00:00,2,7006,71,0.30,2,2,0,2,6124,8003,654,7000,71,71,0,71,0.10,0.45,0.12,0.30
2017-04-27 22:10:00,2,8987,71,0.13,2,2,0,2,7691,10355,673,9103,71,71,0,71,0.00,0.30,0.08,0.12
2017-04-27 22:20:00,2,9647,66,0.12,2,2,0,2,8380,10470,649,9560,41,77,16,77,0.10,0.25,0.05,0.10
2017-04-27 22:30:00,2,9746,41,0.14,2,2,0,2,8667,10471,489,9794,41,41,0,41,0.05,0.20,0.05,0.15
2017-04-27 22:40:00,2,8995,68,0.18,2,2,0,2,8220,10194,625,8813,41,71,9,71,0.00,0.35,0.11,0.20
2017-04-27 22:50:00,2,8941,71,0.15,2,2,0,2,7745,9952,751,9275,71,71,0,71,0.00,0.40,0.12,0.12
2017-04-27 23:00:00,2,9532,72,0.10,2,2,0,2,7907,11265,1045,9568,71,77,2,71,0.00,0.15,0.04,0.10
2017-04-27 23:10:00,2,9932,76,0.10,2,2,0,2,8361,11074,755,9930,71,77,2,77,0.00,0.25,0.07,0.10
2017-04-27 23:20:00,2,9399,72,0.11,2,2,0,2,8068,11378,1023,9258,71,77,2,71,0.00,0.60,0.17,0.05
2017-04-27 23:30:00,2,9456,73,0.10,2,2,0,2,8596,10543,599,9514,71,77,3,71,0.05,0.25,0.06,0.08
2017-04-27 23:40:00,2,9775,48,0.08,2,2,0,2,8648,11049,748,9728,41,77,14,41,0.00,0.15,0.05,0.08
2017-04-27 23:50:00,2,9994,41,0.07,2,2,0,2,9409,11106,556,9785,41,41,0,41,0.00,0.20,0.06,0.05
